Погода в Марвдаште

Иран     29°51′57″N   52°47′49″E
темп.,
°C
ветер,
м/с
пор.,
м/с
влажн.,
%
обл.,
%
осадки,
мм/ч
давл.,
гПа
погр.,
м
14 апреля, ср
ср1401:30+10зсз22800 0.1 102030
04:30+8сз118986 0.1 101911
07:30+10зсз11804 0.1 102031
10:30+16юв11531 0.2 1018634
13:30+21юз35341 0.0 10142232
16:30+18ссз244065 0.1 1013979
19:30+17з343817 0.0 101256
22:30+15зсз33451 0.0 101523
15 апреля, чт
чт1501:30+13зсз33544 0.0 101416
04:30+11юз116365 0.2 101410
07:30+13зсз11610 0.2 101613
10:30+18зсз34330 0.2 10151449
13:30+22сз34200 0.0 10122359
16:30+24зсз66130 0.0 10093476
19:30+18зсз56250 0.0 101164
22:30+15з33320 0.0 101312
16 апреля, пт
пт1601:30+13сз33320 0.0 101315
04:30+10зсз22290 0.0 101310
07:30+12сз22290 0.0 101513
10:30+19зсз11150 0.0 1014742
13:30+23юз2370 0.0 10112170
16:30+25з5560 0.0 10083193
19:30+18зсз55140 0.0 101050
22:30+15сз33170 0.0 101318
17 апреля, сб
сб1701:30+12зсз33210 0.0 101314
04:30+11сз22254 0.0 101410
07:30+12ссз113124 0.0 101510
10:30+20ссз001656 0.0 1014648
13:30+24юв1210100 0.0 10122519
16:30+25ююв218100 0.0 10102961
19:30+20зюз2212100 0.0 101111
22:30+18зсз2318100 0.0 101414
18 апреля, вс
вс1801:30+15зсз1128100 0.0 101411
04:30+14ссз1128100 0.0 101511
07:30+15сз222870 0.0 101711
10:30+22ююз011644 0.0 1016811
13:30+25юв221240 0.0 10133152
16:30+26ююз33963 0.0 10113556
19:30+20юз331410 0.0 101232
22:30+17зсз332669 0.0 101616